Location: *
(43.9900°N, 3.4811°E)
Time: 01:18:59
(UTC+00:00)

Cosmos 494 Rocket - Pass Details

Date: 25 August 2019
Orbit: 742 x 770 km, 74.1° (Epoch: 19 September)

Event Time Altitude Azimuth Distance (km) Brightness Sun altitude
Rises 21:34:58 0° 341° (NNW) 3,197 8.3 -27.6°
Reaches altitude 10° 21:37:21 10° 345° (NNW) 2,272 7.3 -27.8°
Enters shadow 21:41:43 57° 23° (NNE) 879 4.3 -28.3°
